STARLINK-3095, 49160

Orbit data source: Space-Track

STARLINK-3095, 49160 is a payload satellite owned by SpaceX/Seattle (US) in LEO that was launched on Tue, 14 Sep 2021 UTC via an FALCON 9 launch vehicle from the Air Force Western Test Range (AFWTR). Payload-class satellites include a variety of spacecraft equipped with specific instruments for various scientific and technological missions. These include communications satellites like Starlink; space stations such as the ISS; scientific satellites like the Hubble; Earth observation satellites from companies like Planet Labs, Umbra, and HawkEye 360; GPS; miniature CubeSats for education and research; and military/defense satellites.

Loading next visibility...
Identifier
49160, 2021-082AG
Orbit
LEO
Last TLE update
12 hours ago
Origin
Manufacturer
SpaceX/Seattle
Mission
Operational Commercial Communications
Bus & Motor
STARLINK, Unknown motor
Mass
297 kg wet, ~275 kg dry
Launch date (UTC)
2021-09-14 (4 years ago)
Launch vehicle
FALCON 9
Launch site
Air Force Western Test Range (AFWTR)
Object type
Payload
Rocket body
Debris
Shape & HBR
Box + 1 Pan, 8.86 m
Radar Cross Section
13.562 m², Large (>1 m²)

Expand to show TLE details & history

TLE from 12 hours ago
0 STARLINK-3095
1 49160U 21082AG  25183.79383722 -.00000004  00000-0  74573-5 0  9999
2 49160  69.9992 204.5105 0003461 267.3128  92.7635 14.98330251209612
Epoch: 2025-07-02T19:03Z
TLE epoch observation values (Epoch: 2025-07-02T19:03:07.535Z)
Latitude
-0.00004°
Longitude
-2.34074°
Altitude
574.596 km
Speed
7.574 km/s
True Right ascension
13h 38m 02s
True Declination
0° 00' 00"
Sunlit
Object was in daylight at epoch
Visualization orbit readout
Latitude
70.09964°
Longitude
86.327°
Altitude
585.948 km
Speed
7.573 km/s
Apparent Right ascension
05h 27m 17s
Apparent Declination
42° 10' 14"
Sunlit
Object is in daylight
Visualization observer readout
Local Sidereal Time
18:25:47
Azimuth
10.864° NNE
Elevation
-6.849°
Doppler factor
1
Orbital elements
Apogee altitude
572.408 km
Perigee altitude
567.599 km
Semi-major axis
6,948.14 km
Eccentricity
0.00035
Inclination
69.9992°
RAAN
204.5105°
Arg. of periapsis
267.3128°
True anomaly
Unknown
Mean anomaly
92.7635°
Eccentric anomaly
Unknown
Mean motion
3.74749 °/min
Orbital period
96.06 mins
BSTAR
0.0000074573
Loading maneuver chart data...
Loading SW <> Apogee altitude chart data...
Loading historical data...
Loading historical data...
Loading historical data...
Loading historical data...
Loading historical data...
Loading historical data...
Loading historical data...

STARLINK-3095 Visibility forecast

Observer location: undefined°, undefined°

Span
Click to sort rows by Start time (UTC) header in descending order
Start Az.
Max El. time (UTC)
Max El. Az.
Max El.
End time (UTC)
End Az.
6 mins2025-07-03 11:37:04.174Z9.004° NNE2025-07-03 11:40:04.174Z65.582° ENE22.298°2025-07-03 11:43:04.174Z112.034° ESE
5 mins2025-07-03 13:16:04.174Z294.441° NW2025-07-03 13:18:04.174Z250.466° W24.908°2025-07-03 13:21:04.174Z198.243° SSW
5 mins2025-07-04 03:16:04.174Z245.68° WSW2025-07-04 03:18:04.174Z301.409° NW32.733°2025-07-04 03:21:04.174Z4.356° NNE
|